AirNav   Bose ProFlight Series 2 Headset
 
 924 users online  

04WN Stillwater Creek Airport
Royal City, Washington, USA

GOING TO ROYAL CITY?


FAA INFORMATION EFFECTIVE 30 JANUARY 2020

Location

FAA Identifier: 04WN
Lat/Long: 46-57-30.0900N 119-38-19.7500W
46-57.501500N 119-38.329167W
46.9583583,-119.6388194
(estimated)
Elevation: 1510 ft. / 460 m (estimated)
From city: 4 miles NNW of ROYAL CITY, WA
Time zone: UTC -8 (UTC -7 during Daylight Saving Time)
Zip code: 99357

Airport Operations

Airport use: Private use. Permission required prior to landing
Activation date: 02/2007
Control tower: no
ARTCC: SEATTLE CENTER
FSS: SEATTLE FLIGHT SERVICE STATION
Attendance: UNATNDD
Segmented circle: no

Airport Communications

WX ASOS at MWH (20 nm NE): PHONE 509-762-5082

Nearby radio navigation aids

VOR radial/distance  VOR name  Freq  Var
MWHr203/20.1MOSES LAKE VOR/DME115.0018E
EPHr178/26.7EPHRATA VORTAC112.6021E
ELNr076/33.8ELLENSBURG VOR/DME117.9021E
EATr124/35.3WENATCHEE VOR/DME111.0015E

Airport Services

Runway Information

Runway 11/29

Dimensions: 4100 x 60 ft. / 1250 x 18 m
Surface: asphalt
RUNWAY 11  RUNWAY 29
Traffic pattern: leftleft

Airport Ownership and Management from official FAA records

Ownership: Privately-owned
Owner: STILLWATER CREEK VINEYARD
8791 ROAD G5 SW
ROYAL CITY, WA 99357
Phone 206-674-3000
Manager: KEITH VERNON
1000 2ND AVE STE 3700
SEATTLE, WA 98104
Phone 206-674-8709

Additional Remarks

FOR CD CTC GRANT COUNTY APCH AT 509-762-2842, WHEN APCH CLSD CTC SEATTLE ARTCC AT 253-351-3694.

Instrument Procedures

There are no published instrument procedures at 04WN.

Some nearby airports with instrument procedures:

KMWH - Grant County International Airport (20 nm NE)
KEPH - Ephrata Municipal Airport (22 nm N)
KEAT - Pangborn Memorial Airport (35 nm NW)
KELN - Bowers Field Airport (37 nm W)
KRLD - Richland Airport (42 nm S)
 
Loc | Ops | Rwys | IFR | FBO | Links
Com | Nav | Svcs | Stats | Notes
Area around 04WN (Stillwater Creek Airport)
 
Road maps at: MapQuest Bing Google
 
Aerial photo
No photo
 
Sectional chart

 
Airport distance calculator
Flying to Stillwater Creek Airport? Find the distance to fly.

From to 04WN

Sunrise and sunset
Times for 24-Feb-2020
 Local
(UTC-8)
 Zulu
(UTC)
Morning civil twilight06:1814:18
Sunrise06:4814:48
Sunset17:3501:35
Evening civil twilight18:0602:06

Current date and time
Zulu (UTC)  24-Feb-2020 13:42:31
Local (UTC-8)  24-Feb-2020 05:42:31
 
METAR
KMWH 
20nm NE 
241252Z AUTO 26018KT 10SM CLR 03/M05 A3028 RMK AO2 SLP259 T00331050
KEPH 
21nm N 
241253Z AUTO 25009KT 10SM CLR 01/M04 A3028 RMK AO2 SLP264 T00111044
KEAT 
35nm NW 
241255Z AUTO 31005KT 10SM FEW055 01/M04 A3029 RMK AO2 SLP266 T00111039 $
KELN 
37nm W 
241253Z AUTO 30023G34KT 10SM CLR 03/M06 A3033 RMK AO2 PK WND 30035/1221 SLP281 T00281056
TAF
KMWH 
20nm NE 
241120Z 2412/2512 27007KT P6SM SKC WS020/27030KT FM241400 22015KT P6SM SKC FM241900 27013KT P6SM FEW200 FM250100 29009KT P6SM FEW180
NOTAMs
Click for the latest NOTAMs
NOTAMs are issued by the DoD/FAA and will open in a separate window not controlled by AirNav.

 

 
 

Would you like to see your business listed on this page?

 If your business provides an interesting product or service to pilots, flight crews, aircraft, or users of the Stillwater Creek Airport, you should consider listing it here.  To start the listing process, click on the button below
 
Add a business
 

Other Pages about Stillwater Creek Airport

Update a link
 
Copyright © AirNav, LLC. All rights reserved. Privacy Policy  Contact